Simultaneous Nadir Overpasses (SNOs) Predictions

Prediction of SNOs between METOP-B and NOAA-19 Satellite Orbit:

Table of predicted SNOs for the next 14.0 days since TLE Epoch: 5/21/2021
Index Date (METOP-B) Time (METOP-B) Lat,Lon (METOP-B) SZA (METOP-B ) Date (NOAA-19) Time (NOAA-19) Lat,Lon (NOAA-19) SZA (NOAA-19 ) Distance(km) Time Diff (sec)
1 05/31/2021 03:25:44 80.52, 157.13 59.83 05/31/2021 03:24:49 80.52, 157.03 59.80 1.98 55
2 05/31/2021 04:16:26 -80.51, -35.71 120.20 05/31/2021 04:15:44 -80.52, -35.79 120.22 1.96 42
3 05/31/2021 05:07:06 80.51, 131.67 59.80 05/31/2021 05:06:49 80.51, 131.65 59.79 0.39 17
4 05/31/2021 05:57:48 -80.50, -61.17 120.23 05/31/2021 05:57:44 -80.51, -61.17 120.22 1.58 4
5 05/31/2021 06:48:28 80.50, 106.20 59.77 05/31/2021 06:48:49 80.50, 106.27 59.79 1.29 21
6 05/31/2021 07:39:10 -80.49, -86.63 120.26 05/31/2021 07:39:44 -80.51, -86.55 120.23 2.48 34
7 05/31/2021 08:29:50 80.49, 80.74 59.74 05/31/2021 08:30:49 80.50, 80.90 59.78 2.90 59



Historial Predications of SNOs between METOP-B and NOAA-19
